Regional Weather Roundup
Issued by NWS

Home | Current Version | Previous Version | Text Only | Print | Product List | Glossary Off
Versions: 1 2 3 4 5 6 7 8 9 10 11 12 13 14 15 16 17 18 19 20 21 22 23 24 25 26 27

000
ASUS45 KBOU 262207
RWRCO

WEATHER ROUNDUP FOR COLORADO
NATIONAL WEATHER SERVICE DENVER/BOULDER CO
400 PM MDT FRI MAY 26 2017

NOTE: "FAIR" INDICATES FEW OR NO CLOUDS BELOW 12000 FEET WITH NO
SIGNIFICANT WEATHER AND/OR OBSTRUCTIONS TO VISIBILITY.

COZ001>005-013-030-031-262300-
...NORTHWEST COLORADO...

CITY           SKY/WX    TMP DP  RH WIND       PRES   REMARKS
CRAIG          PTSUNNY   69  25  19 W23       29.80F
HAYDEN         FAIR      68  25  19 SW20G30   29.82S
MEEKER         FAIR      71  22  15 S18G32    29.81F
RABBIT EARS PA NOT AVBL
STEAMBOAT SPGS NOT AVBL
WALDEN         NOT AVBL
$$

COZ006>008-011-262300-
...WEST CENTRAL VALLEYS...

CITY           SKY/WX    TMP DP  RH WIND       PRES   REMARKS
GRAND JUNCTION FAIR      82  15   8 S16       29.74F
MONTROSE       FAIR      77  12   8 SW21G30   29.86F
EAGLE          MOSUNNY   72  18  13 SW21G31   29.86F
RIFLE          FAIR      77   7   7 SW22G32   29.78F
DELTA          FAIR      84   9   6 SW24G32   29.82F
NUCLA          FAIR      77  12   8 SW14G32   29.91F
$$

COZ017>023-064>068-262300-
...SOUTHWEST COLORADO...

CITY           SKY/WX    TMP DP  RH WIND       PRES   REMARKS
DURANGO        FAIR      74   9   8 SW16G23   29.98F
CORTEZ         FAIR      77   7   7 SW15G28   29.92F
PAGOSA SPRINGS FAIR      70   4   7 SW18G35   30.05S
TELLURIDE      FAIR      62  11  14 S15G26    30.08F
WOLF CREEK PAS NOT AVBL
$$

COZ009-010-012-014-032>034-037-058>063-262300-
...CENTRAL COLORADO...

CITY           SKY/WX    TMP DP  RH WIND       PRES   REMARKS
ASPEN          PTSUNNY   64  22  20 S8        29.95F
BUENA VISTA    FAIR      67  18  15 S7G18     29.97S
COPPER MTN     NOT AVBL
BERTHOUD PASS  NOT AVBL
COTTONWOOD PAS NOT AVBL
GUNNISON       FAIR      65  22  19 W9        29.96F
KREMMLING      NOT AVBL
LEADVILLE      PTSUNNY   52  17  25 SW9G41    30.07F
SALIDA         FAIR      71  11  10 S16G24    30.00F
SUNLIGHT       NOT AVBL
WILKERSON PASS NOT AVBL
$$

COZ069>075-262300-
...SAN LUIS VALLEY/SANGRE DE CRISTO MOUNTAINS...

CITY           SKY/WX    TMP DP  RH WIND       PRES   REMARKS
ALAMOSA        FAIR      73  10   9 SW26G40   29.98F
DEL NORTE      NOT AVBL
LA VETA PASS   NOT AVBL
SAGUACHE       NOT AVBL
$$

COZ035-036-038>040-262300-
...NORTHERN COLORADO FRONT RANGE...

CITY           SKY/WX    TMP DP  RH WIND       PRES   REMARKS
DENVER INTL AP FAIR      71  47  42 S16       29.81S
DMNS CITY PARK   N/A     67  50  53 N15       29.83S
AURORA         PTSUNNY   70  47  43 SW8       29.83F
FRONT RANGE AP PTSUNNY   72  50  46 SE12G20     N/A
ERIE MUNI ARPT NOT AVBL
BOULDER MUN AP NOT AVBL
CENTENNIAL     PTSUNNY   66  48  52 SW9       29.84F THUNDER
BROOMFIELD     PTSUNNY   64  50  59 W6        29.85F
FORT COLLINS   PTSUNNY   65  50  58 N9        29.85F
LONGMONT       NOT AVBL
$$

COZ041-046-047-076>085-087-088-262300-
...PIKES PEAK/PALMER DIVIDE AND SOUTHERN FOOTHILLS...

CITY           SKY/WX    TMP DP  RH WIND       PRES   REMARKS
COLO. SPRINGS  PTSUNNY   69  45  41 SE16G22   29.91F
A. F. ACADEMY  PTSUNNY   63  45  51 S17G26    29.92S
SCHRIEVER AFB  FAIR      70  41  34 SE20G26   29.91F
CHEYENNE MTN   PTSUNNY   65  44  47 SE18G26   29.89F
ELLICOTT       FAIR     N/A N/A N/A S22G29    29.89F
FALCON         FAIR      62  45  53 S14       29.96F
FORT CARSON    FAIR      73  45  36 SE15      29.87F
LIMON          FAIR      71  44  37 S24G33    29.87F
MONUMENT HILL  NOT AVBL
CANON CITY     NOT AVBL
WALSENBURG     FAIR      81  21  11 SW21G35   29.86F
TRINIDAD       FAIR      80  25  13 S24G36    29.86F
$$

COZ042>045-048>051-090-091-262300-
...NORTHEAST COLORADO...

CITY           SKY/WX    TMP DP  RH WIND       PRES   REMARKS
GREELEY ARPT   FAIR      71  51  49 E22G28    29.81F
AKRON          LGT RAIN  63  49  60 SE12      29.91R
BURLINGTON     FAIR      72  53  51 SE15      29.88F
WRAY           FAIR      72  46  40 SE16G22   29.88F
YUMA           NOT AVBL
STERLING       NOT AVBL
HOLYOKE        NOT AVBL
FORT MORGAN    FAIR      60  50  69 E14       29.85F
$$

COZ086-089-092>099-262300-
...SOUTHEAST COLORADO...

CITY           SKY/WX    TMP DP  RH WIND       PRES   REMARKS
PUEBLO         FAIR      80  45  28 SE23G30   29.77F
LA JUNTA       FAIR      81  48  31 SE23G30   29.80F
LAMAR          FAIR      79  47  32 S16       29.82F
SPRINGFIELD      N/A     78  48  34 S20G25    29.89F
$$




USA.gov is the U.S. government's official web portal to all federal, state and local government web resources and services.